Location: Cambroso
(45.2833°N, 12.0850°E)
Time: 16:30:42
(UTC+00:00)

Cosmos 2112 Rocket - Pass Details

Date: 21 January 2021
Orbit: 757 x 786 km, 74.1° (Epoch: 26 February)

Event Time Altitude Azimuth Distance (km) Brightness Sun altitude
Rises 18:18:55 0° 338° (NNW) 3,252 7.5 -23.5°
Reaches altitude 10° 18:21:19 10° 338° (NNW) 2,316 6.7 -24.0°
Maximum altitude 18:26:35 84° 250° (WSW) 773 3.9 -24.9°
Enters shadow 18:28:50 35° 165° (SSE) 1,217 4.9 -25.3°
